Regional Weather Roundup
Issued by NWS

Home | Current Version | Previous Version | Text Only | Print | Product List | Glossary On
Versions: 1 2 3 4 5 6 7 8 9 10 11 12 13 14 15 16 17 18 19 20 21 22 23 24 25 26 27 28 29 30 31 32 33 34 35 36 37 38 39 40 41 42 43 44 45 46 47 48 49 50
000
ASUS43 KLMK 242002
RWRKY
KENTUCKY REGIONAL WEATHER ROUNDUP
NATIONAL WEATHER SERVICE LOUISVILLE KY
400 PM EDT SAT SEP 24 2016

NOTE "FAIR" INDICATES FEW OR NO CLOUDS BELOW 12,000 FEET
WITH NO SIGNIFICANT WEATHER AND/OR OBSTRUCTIONS TO VISIBILITY.

KYZ001>023-026-027-061>063-070>075-242100-
WESTERN AND SOUTH CENTRAL KENTUCKY

CITY           SKY/WX    TMP DP  RH WIND       PRES   REMARKS
PADUCAH        MOSUNNY   93  64  38 NW6       30.05F HX  94
HENDERSON      MOSUNNY   88  64  45 N6        30.05F
OWENSBORO      NOT AVBL
HOPKINSVILLE   MOSUNNY   89  65  44 NE6       30.07F HX  91
BOWLING GREEN  SUNNY     91  62  37 N6        30.08F HX  91
GLASGOW        SUNNY     88  62  40 CALM      30.09F
$$

KYZ024-025-028>034-038-045-046-053-242100-
NORTH CENTRAL KENTUCKY

CITY           SKY/WX    TMP DP  RH WIND       PRES   REMARKS
LOUISVILLE/SDF MOSUNNY   91  60  35 NE7       30.07F HX  90
LOUISVILLE/LOU MOSUNNY   91  61  36 N3        30.08F HX  91
FORT KNOX      SUNNY     87  64  46 NW3       30.08F
$$

KYZ035>037-039>044-047>052-055>060-089>105-242100-
NORTHEAST KENTUCKY

CITY           SKY/WX    TMP DP  RH WIND       PRES   REMARKS
LEXINGTON      SUNNY     89  60  37 W5        30.10F
COVINGTON      MOSUNNY   82  67  60 NE5       30.12F
FRANKFORT      SUNNY     90  61  37 CALM      30.08F HX  90
$$

KYZ054-064>069-076>088-106>120-242100-
SOUTHEAST KENTUCKY

CITY           SKY/WX    TMP DP  RH WIND       PRES   REMARKS
JACKSON        PTSUNNY   85  61  44 NW6       30.12F
LONDON         MOSUNNY   88  61  40 CALM      30.11F
SOMERSET       MOSUNNY   86  61  42 W3        30.10F
MIDDLESBORO    SUNNY     88  63  44 NE5       30.10F
MONTICELLO     CLEAR     86  62  44 N17       30.11F
$$





USA.gov is the U.S. government's official web portal to all federal, state and local government web resources and services.